[[{"header":{"parameterUnit":"m.s-1","parameterCategory":1,"la1":30.2991,"la2":30.254,"lo1":-89.0895,"lo2":-89.0444,"dy":0.0017,"dx":0.0017,"nx":28,"ny":28,"refTime":"2023-07-22T09:00:00:Z","depth":0,"parameterNumber":2,"parameterNumberName":"U-component_of_WINDS"},"data":[0,0,0,0,0,0,0,0,0,0,0,0,0,0,0,0,0,0,0,0,0,0,0,0,0,0,0,0,0,0,0,0,0,0,0,0,0,0,0,0,0,0,0,0,0,0,0,0,0,0,0,0,0,0,0,0,0,0,2.1047,2.1047,0,2.1033,2.1033,2.1033,2.0962,2.0961,2.0959,2.0957,2.0946,2.0947,2.0948,0,0,0,0,0,0,0,0,0,0,0,0,0,2.1016,2.1017,2.1047,2.1047,2.1047,2.1033,2.1033,2.1033,2.0963,2.0961,2.0959,2.0957,2.0945,2.0947,2.0948,0,0,0,0,0,0,0,0,0,0,0,0,0,2.1019,2.1017,2.1047,2.101,2.1007,2.1033,2.1033,2.1033,2.0963,2.0961,2.0958,2.0956,2.0945,2.0946,2.0948,2.101,0,0,2.0954,2.0955,0,0,0,0,0,0,0,0,2.1019,2.102,2.1016,2.1013,2.1009,2.0997,2.1017,2.1025,2.0964,2.098,2.0957,2.0955,2.0965,2.0965,2.0968,2.101,2.1009,2.0954,2.0955,2.0956,2.0957,0,0,0,0,0,0,0,2.1018,2.102,2.1042,2.1016,2.1012,2.0995,2.0993,2.1019,2.0987,2.0978,2.0973,2.0972,2.0962,2.0966,2.0967,2.1009,2.0954,2.0956,2.0957,2.0958,2.1102,2.1105,0,0,0,0,0,0,2.1023,2.102,2.1042,2.1041,2.1008,2.0998,2.0995,2.1003,2.0986,2.0981,2.0974,2.0969,2.0964,2.0965,2.0966,2.1038,2.0956,2.0958,2.0959,2.1099,2.1103,2.1105,0,0,0,0,0,0,2.1023,2.1026,2.1043,2.1029,2.103,2.1001,2.1011,2.1004,2.1008,2.0983,2.0977,2.0984,2.0962,2.0964,2.1,2.1037,2.0959,2.096,2.1096,2.11,2.1104,2.1183,0,0,0,0,0,0,2.1022,2.1026,2.1049,2.103,2.1031,2.1076,2.1013,2.1006,2.1011,2.1004,2.0991,2.0986,2.096,2.0998,2.1002,2.1038,2.0962,2.1093,2.1098,2.1103,2.1177,2.1189,2.12,0,0,0,0,0,2.1021,2.1072,2.105,2.1053,2.1059,2.1078,2.1079,2.1048,2.1014,2.1037,2.1022,2.0986,2.1032,2.1002,2.1006,2.1044,2.109,2.1096,2.1102,2.1172,2.1187,2.12,0,0,0,0,0,0,2.1096,2.1069,2.1044,2.109,2.1087,2.1066,2.1094,2.1064,2.1071,2.1064,2.1026,2.1023,2.1066,2.1058,2.1025,2.1103,2.1055,2.1063,2.1107,2.1121,2.1132,2.1133,2.0963,0,0,0,0,0,2.1117,2.1134,2.111,2.1153,2.1153,2.1124,2.1131,2.1107,2.1103,2.1101,2.1088,2.1086,2.11,2.111,2.1121,2.1175,2.1172,2.1203,2.1215,2.1224,2.1231,2.1261,2.1275,2.1126,2.1125,2.1125,0,0,2.1162,2.115,2.1163,2.1168,2.1162,2.1182,2.1123,2.1146,2.1161,2.1105,2.1138,2.1129,2.1124,2.117,2.1189,2.1165,2.1272,2.1232,2.124,2.1242,2.1269,2.1283,2.1295,2.113,2.1129,2.1128,0,0,2.1255,2.1246,2.1281,2.1277,2.127,2.1251,2.1259,2.1243,2.1234,2.1267,2.1226,2.1243,2.1267,2.1266,2.1268,2.1361,2.1329,2.1366,2.1426,2.1455,2.1467,2.1477,2.1511,2.1524,2.1372,2.1373,2.1373,0,2.1312,2.1339,2.1304,2.133,2.1334,2.1283,2.1319,2.1317,2.1314,2.1319,2.1291,2.1321,2.1314,2.1359,2.1382,2.1385,2.1395,2.1367,2.1468,2.1478,2.1487,2.1519,2.1532,2.1377,2.1377,2.1376,2.1376,0,2.141,2.143,2.146,2.1458,2.1465,2.1496,2.1466,2.1477,2.1453,2.1437,2.1472,2.1462,2.1471,2.1479,2.1456,2.1522,2.1507,2.1474,2.1425,2.1506,2.1536,2.1548,2.1384,2.1382,2.1381,2.138,0,0,2.1549,2.1528,2.1539,2.1538,2.1526,2.1541,2.1571,2.1579,2.159,2.159,2.1614,2.1636,2.1606,2.1608,2.1585,2.161,2.1686,2.1574,2.1573,2.1596,2.1759,2.1785,2.18,2.1664,2.1666,2.1668,2.176,0,2.1639,2.1687,2.1656,2.1709,2.1728,2.168,2.1706,2.1702,2.1688,2.1703,2.1687,2.1704,2.1662,2.1663,2.1686,2.1672,2.1718,2.1664,2.1688,2.1689,2.1692,2.1815,2.1842,2.1929,2.1771,2.1773,2.1774,0,2.1749,2.1754,2.1809,2.1794,2.1801,2.1824,2.183,2.1844,2.1839,2.1827,2.183,2.18,2.1829,2.178,2.182,2.1785,2.1792,2.1787,2.1789,2.1791,2.1738,2.1822,2.1956,2.197,2.1792,2.1791,2.179,0,2.1847,2.1866,2.1902,2.1902,2.1886,2.1904,2.1898,2.1891,2.1898,2.1903,2.1907,2.1916,2.1921,2.1929,2.1902,2.1869,2.1946,2.1895,2.1938,2.1939,2.1957,2.1957,2.2097,2.1961,2.196,2.196,2.196,0,2.195,2.1986,2.1946,2.1968,2.2007,2.1972,2.2012,2.2001,2.1995,2.2015,2.1975,2.1995,2.1958,2.1974,2.1954,2.1991,2.1993,2.1985,2.1979,2.1989,2.1991,2.1995,2.1989,2.1964,2.1963,2.1962,2.1962,0,2.2066,2.204,2.2076,2.2058,2.2054,2.2084,2.2069,2.2089,2.2072,2.2098,2.2102,2.2076,2.2094,2.2068,2.2082,2.2068,2.212,2.2104,2.2122,2.2117,2.2163,2.2159,2.2311,2.233,2.2181,2.2182,2.2184,0,2.2134,2.2161,2.2145,2.2156,2.2152,2.2169,2.2176,2.2142,2.2152,2.2149,2.217,2.2184,2.2193,2.2223,2.2206,2.2217,2.2203,2.2255,2.2204,2.2214,2.2205,2.2204,2.2207,2.2266,2.2268,2.2269,2.227,0,2.2259,2.2245,2.2256,2.2263,2.2273,2.2277,2.2278,2.2289,2.2254,2.2267,2.2284,2.2291,2.2306,2.2321,2.2328,2.2322,2.2292,2.2286,2.2297,2.2308,2.2318,2.2315,2.2151,2.2283,2.2282,2.2281,2.228,2.228,2.2354,2.2375,2.2368,2.2383,2.238,2.2382,2.2401,2.2386,2.24,2.2409,2.2388,2.2411,2.2406,2.2412,2.2411,2.2428,2.2406,2.2421,2.2425,2.243,2.2437,2.2314,2.2429,2.2429,2.2428,2.2428,2.2428,0,2.2477,2.247,2.2484,2.2487,2.2498,2.2467,2.2467,2.2479,2.2499,2.2497,2.2507,2.2527,2.2542,2.2526,2.2537,2.2555,2.2541,2.2559,2.2558,2.2558,2.2456,2.2446,2.257,2.257,2.257,2.257,2.257,2.257,2.2543,2.2578,2.2564,2.2598,2.2591,2.2612,2.2615,2.2618,2.2616,2.264,2.2652,2.2641,2.2634,2.2645,2.2657,2.2652,2.2659,2.2682,2.2673,2.2579,2.2565,2.2551,2.2542,2.2684,2.2684,2.2773,2.2773,2.2774]},{"header":{"parameterUnit":"m.s-1","parameterCategory":1,"la1":30.2991,"la2":30.254,"lo1":-89.0895,"lo2":-89.0444,"dy":0.0017,"dx":0.0017,"nx":28,"ny":28,"refTime":"2023-07-22T09:00:00:Z","depth":0,"parameterNumber":3,"parameterNumberName":"V-component_of_WINDS"},"data":[0,0,0,0,0,0,0,0,0,0,0,0,0,0,0,0,0,0,0,0,0,0,0,0,0,0,0,0,0,0,0,0,0,0,0,0,0,0,0,0,0,0,0,0,0,0,0,0,0,0,0,0,0,0,0,0,0,0,0.9574,0.9574,0,0.9655,0.9656,0.9657,0.9692,0.9692,0.9692,0.9692,0.9777,0.978,0.9782,0,0,0,0,0,0,0,0,0,0,0,0,0,0.9449,0.9451,0.9573,0.9574,0.9575,0.9655,0.9656,0.9657,0.9692,0.9692,0.9692,0.9692,0.9777,0.9779,0.9782,0,0,0,0,0,0,0,0,0,0,0,0,0,0.9514,0.9452,0.9573,0.9603,0.9606,0.9654,0.9656,0.9657,0.9692,0.9692,0.9692,0.9692,0.9776,0.9779,0.9783,0.9809,0,0,0.9794,0.9795,0,0,0,0,0,0,0,0,0.951,0.9519,0.9597,0.9601,0.9605,0.9663,0.9643,0.9708,0.9692,0.966,0.9692,0.9692,0.974,0.9746,0.9762,0.9813,0.9817,0.9794,0.9796,0.9798,0.9799,0,0,0,0,0,0,0,0.9506,0.9515,0.9606,0.9598,0.9603,0.9612,0.9621,0.9656,0.97,0.9662,0.9665,0.9674,0.9742,0.9758,0.9764,0.9818,0.9794,0.9797,0.9799,0.9801,0.9892,0.9893,0,0,0,0,0,0,0.9496,0.9511,0.9603,0.9608,0.9556,0.9614,0.9624,0.9645,0.97,0.9708,0.9674,0.9676,0.9752,0.976,0.9767,0.9801,0.9798,0.9801,0.9803,0.9892,0.9892,0.9893,0,0,0,0,0,0,0.9494,0.9504,0.96,0.9561,0.9573,0.9617,0.9639,0.9646,0.9663,0.9708,0.9717,0.9683,0.9753,0.9762,0.9798,0.9804,0.9803,0.9806,0.9892,0.9892,0.9893,0.9868,0,0,0,0,0,0,0.949,0.9503,0.9513,0.956,0.9575,0.9629,0.9639,0.9648,0.9669,0.9671,0.9719,0.9727,0.9753,0.9792,0.9801,0.9809,0.9809,0.9891,0.9892,0.9892,0.9868,0.9867,0.9866,0,0,0,0,0,0.9485,0.9504,0.9514,0.9525,0.9589,0.9629,0.9637,0.9667,0.9669,0.968,0.9709,0.9725,0.9802,0.9795,0.9806,0.9815,0.9891,0.9892,0.9892,0.9868,0.9867,0.9866,0,0,0,0,0,0,0.9458,0.9511,0.9522,0.9557,0.9588,0.9635,0.9649,0.9665,0.9697,0.9698,0.9733,0.9744,0.9776,0.9799,0.9791,0.9842,0.9848,0.9851,0.9826,0.9825,0.9824,0.9818,0.9812,0,0,0,0,0,0.9456,0.9483,0.9528,0.9554,0.9569,0.9606,0.9625,0.9644,0.9678,0.9692,0.9724,0.9756,0.9788,0.9808,0.9839,0.9871,0.9882,0.9883,0.9882,0.9881,0.9883,0.99,0.9901,0.9895,0.9895,0.9895,0,0,0.9452,0.9484,0.9499,0.9549,0.9576,0.9603,0.9617,0.9646,0.9667,0.9697,0.9732,0.9756,0.9795,0.9828,0.9844,0.9848,0.9886,0.9881,0.988,0.9883,0.9901,0.9901,0.9902,0.9895,0.9895,0.9895,0,0,0.9459,0.9486,0.951,0.9535,0.9575,0.9599,0.9605,0.9649,0.9666,0.9701,0.9723,0.9748,0.9802,0.9828,0.9849,0.9863,0.9879,0.9872,0.9868,0.9884,0.9884,0.9885,0.9889,0.989,0.9874,0.9874,0.9874,0,0.9449,0.9491,0.952,0.9548,0.9568,0.9595,0.9619,0.9643,0.9691,0.9705,0.9708,0.9774,0.9803,0.9842,0.9845,0.9861,0.9868,0.9867,0.9882,0.9883,0.9884,0.9888,0.989,0.9873,0.9873,0.9873,0.9873,0,0.9477,0.9505,0.952,0.9564,0.9586,0.9612,0.9645,0.9664,0.9681,0.9705,0.974,0.9774,0.9812,0.9823,0.9841,0.9864,0.9865,0.9875,0.9881,0.9883,0.9887,0.9889,0.9871,0.9871,0.9872,0.9872,0,0,0.947,0.9528,0.9533,0.9553,0.9597,0.962,0.9646,0.9682,0.9697,0.9729,0.9752,0.9795,0.9803,0.9826,0.9847,0.9861,0.9869,0.9869,0.9871,0.9867,0.9896,0.9888,0.989,0.988,0.988,0.988,0.9893,0,0.9483,0.953,0.9556,0.9593,0.9619,0.9644,0.9666,0.9696,0.9718,0.9744,0.9769,0.9799,0.9808,0.9822,0.9837,0.9865,0.9875,0.9864,0.9901,0.9902,0.989,0.9893,0.9885,0.9895,0.9895,0.9895,0.9895,0,0.9504,0.9533,0.9572,0.9612,0.9624,0.9644,0.9678,0.9702,0.9736,0.9751,0.9775,0.9795,0.9823,0.9827,0.9866,0.9858,0.9874,0.989,0.9891,0.9896,0.9899,0.9897,0.9899,0.99,0.9899,0.9898,0.9898,0,0.9494,0.9544,0.9573,0.9589,0.9636,0.9649,0.9669,0.9703,0.9722,0.9752,0.9765,0.9798,0.9816,0.9841,0.9869,0.987,0.9905,0.9912,0.9919,0.9918,0.9926,0.9925,0.993,0.9936,0.9936,0.9936,0.9936,0,0.9505,0.9528,0.9569,0.9587,0.9612,0.9642,0.9667,0.9689,0.9718,0.9741,0.9764,0.9785,0.9821,0.9846,0.9868,0.9897,0.9905,0.9918,0.9924,0.9916,0.9914,0.9927,0.9927,0.9937,0.9937,0.9937,0.9936,0,0.9499,0.9527,0.956,0.9601,0.9612,0.9629,0.9665,0.9683,0.9706,0.9734,0.9742,0.9778,0.9809,0.9839,0.9881,0.9896,0.9924,0.9931,0.9912,0.9915,0.992,0.9919,0.9934,0.9937,0.9941,0.9941,0.9941,0,0.9504,0.9522,0.9564,0.958,0.9599,0.9626,0.9645,0.9674,0.9694,0.9732,0.9745,0.9777,0.9805,0.9852,0.9883,0.9914,0.9923,0.9926,0.9928,0.9919,0.9922,0.9921,0.9922,0.9925,0.9925,0.9924,0.9924,0,0.951,0.9522,0.9549,0.958,0.9602,0.9628,0.9655,0.9667,0.9702,0.9722,0.9753,0.9774,0.9815,0.9847,0.9881,0.9903,0.9919,0.9923,0.9926,0.9919,0.9907,0.9913,0.9909,0.9923,0.9923,0.9923,0.9923,0.9923,0.9509,0.9525,0.9557,0.9586,0.9608,0.9633,0.9651,0.9676,0.9702,0.9737,0.9753,0.9783,0.9815,0.9863,0.9884,0.9909,0.9913,0.9918,0.9919,0.992,0.9918,0.9902,0.9915,0.9915,0.9915,0.9915,0.9915,0,0.9516,0.9537,0.9562,0.9599,0.9621,0.9633,0.9663,0.9681,0.9707,0.9735,0.9761,0.9795,0.9825,0.9857,0.9889,0.9902,0.9911,0.991,0.9909,0.9914,0.9912,0.9906,0.9902,0.9902,0.9902,0.9902,0.9902,0.9902,0.9522,0.9549,0.9565,0.9604,0.9626,0.9655,0.9671,0.9693,0.9715,0.9753,0.9777,0.9797,0.9827,0.986,0.9888,0.9897,0.9907,0.9904,0.9915,0.9913,0.9914,0.9915,0.9909,0.9906,0.9906,0.9914,0.9914,0.9914]}]]